Location: Newark
(47.4333°N, 19.2500°E)
Time: 21:18:45
(UTC+00:00)

NO-84 - Visible Passes

Search period start: 05 May 2021 00:00
Search period end: 15 May 2021 00:00
Orbit: 313 x 422 km, 55.0° (Epoch: 28 April)

Date Brightness Start Highest point End Pass type
(mag) Time Alt. Az. Time Alt. Az. Time Alt. Az.
06 May ? 02:14:35 11° SSW 02:17:05 30° SE 02:19:54 10° ENE visible
07 May ? 01:12:45 12° SE 01:13:16 12° SE 01:14:38 10° ESE visible
08 May ? 01:42:39 24° S 01:44:00 38° SE 01:46:57 10° ENE visible
09 May ? 00:40:35 15° ESE 00:40:35 15° ESE 00:41:57 10° E visible
09 May ? 02:12:27 14° WSW 02:14:58 69° NNW 02:18:09 10° NE visible
10 May ? 01:10:16 45° S 01:10:41 49° SE 01:13:42 10° ENE visible
11 May ? 00:08:00 14° E 00:08:00 14° E 00:08:50 10° E visible
11 May ? 01:39:51 22° W 01:41:35 55° NNW 01:44:42 10° NE visible
12 May ? 00:37:28 57° ESE 00:37:28 57° ESE 00:40:13 10° ENE visible
12 May ? 02:09:59 10° W 02:12:41 28° NNW 02:15:30 10° NE visible
12 May ? 23:35:00 12° E 23:35:00 12° E 23:35:22 10° ENE visible
13 May ? 01:06:50 29° W 01:07:59 45° NNW 01:11:02 10° NE visible
14 May ? 00:04:16 41° ENE 00:04:16 41° ENE 00:06:27 10° ENE visible
14 May ? 01:36:23 10° WNW 01:39:00 25° NNW 01:41:42 10° NE visible
